map of ASP home
ASP - Airport
Location
City:  Alice Springs, Northern Territory, Australia
ICAO:YBAS
IATA:ASP

Details
Type:Airport (Aerodrome, Airfield)
Use:Public/Civil
Latitude:2348'24"S (-23.806666)
Longitude:13354'08"E (133.902222)
Datum:WGS 1984
Elevation:1789 ft (545 m)
Variation:4.63E (WMM2015 magnetic declination)
-0.06 annual change
Runways:2
Longest:7999 × 148 ft (2438 × 45 m), paved

Time
Time Zone:UTC+9:30
Local Time:

Weather
METAR:YBAS 281200Z AUTO 12005KT 9999 // NCD 11/M01 Q1024
TAF:YBAS 281132Z 2812/2912 12008KT CAVOK

Related Locations
Nearby:
Farthest:TAPT: 11345 mi / 18257 km
Barbuda [Coco Point Lodge], AG

Find:

   beyond  
but within

Other Information
Maps:
NOTAMs:
Links:
Sources:

  
flag of Australia
flag of Northern Territory
  

Airport Diagram

Airport diagram for ASP

Larger airport diagram (OBSOLETE) from NGA

Sectional Chart

Flight Planning
at skyvector.com

Satellite Image

Google Maps Satellite view

 

Copyright © 2004-2017 Karl L. Swartz. All rights reserved.
The Great Circle Mapper name and logo are trademarks of the Great Circle Mapper.
All other trademarks mentioned herein belong to their respective owners.
Please see credits for attibutions and further copyright information.

  Follow gcmap on Facebook Follow gcmap on Twitter Follow gcmap on Google+ GCmap on LinkedIn

hCard Microformat

Geo Microformat